• In Kazakhstan
  • List of Countries
  • For 7 days
  • Water Temperature
  • Satellite Maps
  • Weather Map
  • News
  • Weather Widgets
  • user-avatar
    Login

    Hourly Weather Artashat

    Today, 27 March, Wednesday

    Time Temperature Precipitation Wind Pressure Humidity
    00:00 -1°C° 0 mm 1 mps 595 mmHg 78%
    01:00 -1°C° 0.1 mm 1 mps 595 mmHg 78%
    02:00 -1°C° 0.1 mm 1 mps 595 mmHg 78%
    03:00 -1°C° 0.1 mm 1 mps 595 mmHg 78%
    04:00 -1°C° 0.2 mm 1 mps 596 mmHg 78%
    05:00 -1°C° 0.2 mm 1 mps 596 mmHg 78%
    06:00 -1°C° 0.2 mm 1 mps 596 mmHg 79%
    07:00 0°C° 0.2 mm 1 mps 596 mmHg 77%
    08:00 +1°C° 0.2 mm 1 mps 596 mmHg 75%
    09:00 +1°C° 0.2 mm 1 mps 596 mmHg 73%
    10:00 +2°C° 0.1 mm 1 mps 596 mmHg 71%
    11:00 +3°C° 0.1 mm 1 mps 596 mmHg 69%
    12:00 +4°C° 0.1 mm 1 mps 596 mmHg 66%
    13:00 +4°C° 0.2 mm 1 mps 596 mmHg 65%
    14:00 +5°C° 0.2 mm 1 mps 597 mmHg 64%
    15:00 +5°C° 0.2 mm 1 mps 597 mmHg 63%
    16:00 +4°C° 0.1 mm 1 mps 597 mmHg 64%
    17:00 +4°C° 0.1 mm 1 mps 597 mmHg 65%
    18:00 +3°C° 0.1 mm 1 mps 597 mmHg 66%
    19:00 +3°C° 0 mm 1 mps 597 mmHg 68%
    20:00 +2°C° 0 mm 1 mps 597 mmHg 71%
    21:00 +1°C° 0 mm 1 mps 597 mmHg 73%
    22:00 +1°C° 0 mm 1 mps 597 mmHg 74%
    23:00 +1°C° 0 mm 1 mps 597 mmHg 75%

    Tomorrow, 28 March, Thursday

    Time Temperature Precipitation Wind Pressure Humidity
    00:00 0°C° 0 mm 1 mps 597 mmHg 76%
    01:00 0°C° 0 mm 1 mps 597 mmHg 77%
    02:00 0°C° 0 mm 1 mps 597 mmHg 78%
    03:00 0°C° 0 mm 1 mps 597 mmHg 78%
    04:00 0°C° 0.1 mm 1 mps 597 mmHg 79%
    05:00 0°C° 0.1 mm 1 mps 597 mmHg 79%
    06:00 0°C° 0.1 mm 1 mps 597 mmHg 79%
    07:00 0°C° 0.3 mm 1 mps 598 mmHg 77%
    08:00 +1°C° 0.3 mm 1 mps 598 mmHg 74%
    09:00 +2°C° 0.3 mm 1 mps 598 mmHg 71%
    10:00 +2°C° 0.4 mm 1 mps 598 mmHg 70%
    11:00 +3°C° 0.4 mm 1 mps 598 mmHg 68%
    12:00 +3°C° 0.4 mm 1 mps 598 mmHg 67%
    13:00 +4°C° 0.4 mm 1 mps 598 mmHg 66%
    14:00 +4°C° 0.4 mm 1 mps 598 mmHg 65%
    15:00 +4°C° 0.4 mm 1 mps 598 mmHg 64%
    16:00 +4°C° 0.3 mm 1 mps 597 mmHg 66%
    17:00 +3°C° 0.3 mm 1 mps 597 mmHg 68%
    18:00 +3°C° 0.3 mm 1 mps 597 mmHg 70%
    19:00 +2°C° 0.4 mm 1 mps 597 mmHg 71%
    20:00 +2°C° 0.4 mm 1 mps 598 mmHg 73%
    21:00 +2°C° 0.4 mm 1 mps 598 mmHg 74%
    22:00 +1°C° 0.3 mm 1 mps 598 mmHg 75%
    23:00 +1°C° 0.3 mm 1 mps 598 mmHg 76%

    Day after tomorrow, 29 March, Friday

    Time Temperature Precipitation Wind Pressure Humidity
    00:00 +1°C° 0.3 mm 1 mps 598 mmHg 77%
    01:00 +1°C° 0.2 mm 1 mps 598 mmHg 78%
    02:00 0°C° 0.2 mm 1 mps 598 mmHg 79%
    03:00 0°C° 0.2 mm 1 mps 598 mmHg 79%
    04:00 0°C° 0.4 mm 1 mps 597 mmHg 80%
    05:00 0°C° 0.4 mm 1 mps 597 mmHg 80%
    06:00 0°C° 0.4 mm 1 mps 597 mmHg 81%
    07:00 +1°C° 0.6 mm 1 mps 597 mmHg 79%
    08:00 -1°C° 0.6 mm 2 mps 597 mmHg 77%
    09:00 +1°C° 0.6 mm 2 mps 597 mmHg 75%
    10:00 +1°C° 0.6 mm 2 mps 597 mmHg 72%
    11:00 +2°C° 0.6 mm 2 mps 597 mmHg 69%
    12:00 +3°C° 0.6 mm 2 mps 597 mmHg 67%
    13:00 +3°C° 0.5 mm 2 mps 597 mmHg 66%
    14:00 +4°C° 0.5 mm 1 mps 597 mmHg 66%
    15:00 +5°C° 0.5 mm 1 mps 596 mmHg 65%
    16:00 +4°C° 0.6 mm 1 mps 596 mmHg 67%
    17:00 +4°C° 0.6 mm 1 mps 596 mmHg 69%
    18:00 +3°C° 0.6 mm 1 mps 596 mmHg 71%
    19:00 +3°C° 0.8 mm 1 mps 596 mmHg 74%
    20:00 +3°C° 0.8 mm 1 mps 596 mmHg 76%
    21:00 +2°C° 0.8 mm 1 mps 597 mmHg 78%
    22:00 +2°C° 0.8 mm 1 mps 596 mmHg 80%
    23:00 +2°C° 0.8 mm 1 mps 596 mmHg 81%

    30 March, Saturday

    Time Temperature Precipitation Wind Pressure Humidity
    00:00 +2°C° 0.8 mm 1 mps 596 mmHg 82%
    01:00 +2°C° 0.9 mm 1 mps 596 mmHg 82%
    02:00 +1°C° 0.9 mm 1 mps 596 mmHg 83%
    03:00 +1°C° 0.9 mm 1 mps 596 mmHg 83%
    04:00 +1°C° 1 mm 1 mps 596 mmHg 83%
    05:00 +1°C° 1 mm 1 mps 596 mmHg 83%
    06:00 +1°C° 1 mm 1 mps 596 mmHg 83%
    07:00 +2°C° 1 mm 1 mps 596 mmHg 83%
    08:00 +2°C° 1 mm 1 mps 597 mmHg 83%
    09:00 +2°C° 1 mm 1 mps 597 mmHg 83%
    10:00 +2°C° 0.8 mm 2 mps 597 mmHg 82%
    11:00 +3°C° 0.8 mm 2 mps 597 mmHg 80%
    12:00 +3°C° 0.8 mm 3 mps 597 mmHg 79%
    13:00 +4°C° 1.2 mm 2 mps 597 mmHg 79%
    14:00 +4°C° 1.2 mm 2 mps 597 mmHg 79%
    15:00 +5°C° 1.2 mm 1 mps 597 mmHg 79%
    16:00 +5°C° 0.9 mm 1 mps 597 mmHg 79%
    17:00 +5°C° 0.9 mm 1 mps 597 mmHg 79%
    18:00 +4°C° 0.9 mm 1 mps 597 mmHg 80%
    19:00 +4°C° 0.6 mm 1 mps 598 mmHg 81%
    20:00 +4°C° 0.6 mm 1 mps 598 mmHg 82%
    21:00 +3°C° 0.6 mm 1 mps 598 mmHg 84%
    22:00 +3°C° 0.3 mm 1 mps 598 mmHg 84%
    23:00 +3°C° 0.3 mm 1 mps 598 mmHg 84%

    31 March, Sunday

    Time Temperature Precipitation Wind Pressure Humidity
    00:00 +2°C° 0.3 mm 1 mps 598 mmHg 84%
    01:00 +2°C° 0.2 mm 1 mps 597 mmHg 84%
    02:00 +2°C° 0.2 mm 1 mps 597 mmHg 84%
    03:00 +2°C° 0.2 mm 1 mps 597 mmHg 83%
    04:00 +2°C° 0.3 mm 1 mps 597 mmHg 84%
    05:00 +2°C° 0.3 mm 1 mps 597 mmHg 85%
    06:00 +2°C° 0.3 mm 1 mps 597 mmHg 86%
    07:00 +2°C° 0.1 mm 2 mps 597 mmHg 85%
    08:00 +3°C° 0.1 mm 2 mps 598 mmHg 83%
    09:00 +3°C° 0.1 mm 3 mps 598 mmHg 82%
    10:00 +3°C° 0.4 mm 3 mps 598 mmHg 80%
    11:00 +3°C° 0.4 mm 3 mps 598 mmHg 79%
    12:00 +4°C° 0.4 mm 3 mps 598 mmHg 77%
    13:00 +4°C° 1.1 mm 3 mps 597 mmHg 78%
    14:00 +4°C° 1.1 mm 3 mps 597 mmHg 78%
    15:00 +4°C° 1.1 mm 3 mps 597 mmHg 79%
    16:00 +4°C° 0.7 mm 2 mps 597 mmHg 80%
    17:00 +4°C° 0.7 mm 2 mps 597 mmHg 80%
    18:00 +4°C° 0.7 mm 2 mps 597 mmHg 81%
    19:00 +5°C° 0.3 mm 1 mps 597 mmHg 82%
    20:00 +5°C° 0.3 mm 1 mps 597 mmHg 82%
    21:00 +4°C° 0.3 mm 1 mps 597 mmHg 83%
    22:00 +4°C° 0.4 mm 1 mps 597 mmHg 84%
    23:00 +4°C° 0.4 mm 1 mps 596 mmHg 85%

    1 April, Monday

    Time Temperature Precipitation Wind Pressure Humidity
    00:00 +2°C° 0.4 mm 0 mps 596 mmHg 86%
    01:00 +3°C° 1.1 mm 1 mps 595 mmHg 86%
    02:00 +3°C° 1.1 mm 1 mps 595 mmHg 86%
    03:00 +3°C° 1.1 mm 1 mps 595 mmHg 87%
    04:00 +2°C° 0.4 mm 2 mps 594 mmHg 87%
    05:00 +2°C° 0.4 mm 2 mps 594 mmHg 86%
    06:00 +2°C° 0.4 mm 2 mps 594 mmHg 86%
    07:00 +2°C° 0.1 mm 2 mps 594 mmHg 84%
    08:00 +4°C° 0.1 mm 1 mps 594 mmHg 82%
    09:00 +4°C° 0.1 mm 1 mps 594 mmHg 80%
    10:00 +5°C° 0.2 mm 1 mps 594 mmHg 77%
    11:00 +5°C° 0.2 mm 2 mps 593 mmHg 75%
    12:00 +5°C° 0.2 mm 2 mps 593 mmHg 72%
    13:00 +5°C° 0.4 mm 2 mps 592 mmHg 71%
    14:00 +6°C° 0.4 mm 2 mps 592 mmHg 71%
    15:00 +6°C° 0.4 mm 2 mps 591 mmHg 70%
    16:00 +5°C° 0.6 mm 2 mps 591 mmHg 71%
    17:00 +5°C° 0.6 mm 2 mps 591 mmHg 72%
    18:00 +4°C° 0.6 mm 2 mps 591 mmHg 73%
    19:00 +4°C° 1.6 mm 2 mps 591 mmHg 76%
    20:00 +3°C° 1.6 mm 2 mps 591 mmHg 79%
    21:00 +3°C° 1.6 mm 2 mps 591 mmHg 82%
    22:00 +2°C° 1.5 mm 2 mps 591 mmHg 82%
    23:00 +2°C° 1.5 mm 2 mps 590 mmHg 82%
    Show more